StationID,Date,MaxTemp,MinTemp,Precipitation,Snowfall,SnowDepth
"NOE00134922","2005-08-17",51.98,47.30,,,
"NOE00134922","2005-08-18",68.36,43.70,,,
"NOE00134922","2005-08-19",58.82,52.70,,,
"NOE00134922","2005-08-20",57.20,51.44,,,
"NOE00134922","2005-08-21",53.60,48.56,,,
"NOE00134922","2005-08-22",62.60,41.72,,,
"NOE00134922","2005-08-23",65.30,53.60,,,
"NOE00134922","2005-08-24",60.26,50.18,,,
"NOE00134922","2005-08-25",70.70,44.06,,,
"NOE00134922","2005-08-26",70.88,61.88,,,
"NOE00134922","2005-08-27",67.10,47.66,,,
"NOE00134922","2005-08-28",65.66,46.40,,,
"NOE00134922","2005-08-29",62.24,42.98,,,
"NOE00134922","2005-08-30",58.28,43.52,,,
"NOE00134922","2005-09-01",64.40,45.32,,,
"NOE00134922","2005-09-02",70.52,56.48,,,
"NOE00134922","2005-09-03",57.20,49.82,,,
"NOE00134922","2005-09-04",57.92,45.14,,,
"NOE00134922","2005-09-05",54.50,45.50,,,
"NOE00134922","2005-09-06",47.84,41.54,,,
"NOE00134922","2005-09-07",49.10,39.02,,,
"NOE00134922","2005-09-08",51.26,28.58,,,
"NOE00134922","2005-09-09",48.92,43.16,,,
"NOE00134922","2005-09-10",46.40,39.02,,,
"NOE00134922","2005-09-11",52.52,36.14,,,
"NOE00134922","2005-09-12",52.16,37.94,,,
"NOE00134922","2005-09-13",43.52,36.68,,,
"NOE00134922","2005-09-14",43.52,34.70,,,
"NOE00134922","2005-09-15",44.42,35.60,,,
"NOE00134922","2005-10-01",52.52,41.18,,,
"NOE00134922","2005-10-02",59.54,42.80,,,
"NOE00134922","2005-10-03",46.58,40.10,,,
"NOE00134922","2005-10-04",45.32,39.38,,,
"NOE00134922","2005-10-05",59.36,38.12,,,
"NOE00134922","2005-10-06",52.52,41.36,,,
"NOE00134922","2005-10-07",58.64,37.76,,,
"NOE00134922","2005-10-08",62.96,47.66,,,
"NOE00134922","2005-10-09",57.56,43.16,,,
"NOE00134922","2005-10-10",51.08,36.14,,,
"NOE00134922","2005-10-11",66.56,46.58,,,
"NOE00134922","2005-10-12",48.74,41.72,,,
"NOE00134922","2005-10-13",44.96,41.54,,,
"NOE00134922","2005-10-14",43.16,40.64,,,
"NOE00134922","2005-10-15",41.72,36.50,,,
"NOE00134922","2005-10-16",40.28,33.26,,,
"NOE00134922","2005-10-17",52.70,38.30,,,
"NOE00134922","2005-10-18",42.26,35.78,,,
"NOE00134922","2005-10-19",37.58,33.08,,,
"NOE00134922","2005-10-20",37.58,32.36,,,
"NOE00134922","2005-10-21",36.68,30.56,,,
"NOE00134922","2005-10-22",37.22,27.68,,,
"NOE00134922","2005-10-23",29.84,24.98,,,
"NOE00134922","2005-10-24",29.30,24.98,,,
"NOE00134922","2005-10-25",27.86,16.88,,,
"NOE00134922","2005-10-26",27.68,16.16,,,
"NOE00134922","2005-10-27",26.06,11.66,,,
"NOE00134922","2005-10-28",56.48,21.20,,,
"NOE00134922","2005-10-29",62.24,44.78,,,
"NOE00134922","2005-10-30",54.68,42.08,,,
"NOE00134922","2005-10-31",63.50,38.12,,,
"NOE00134922","2005-11-01",59.00,41.54,,,
"NOE00134922","2005-11-02",48.92,41.54,,,
"NOE00134922","2005-11-03",50.00,34.88,,,
"NOE00134922","2005-11-04",45.68,28.58,,,
"NOE00134922","2005-11-05",42.08,33.08,,,
"NOE00134922","2005-11-06",35.24,26.96,,,
"NOE00134922","2005-11-07",36.32,30.56,,,
"NOE00134922","2005-11-08",38.66,33.08,,,
"NOE00134922","2005-11-09",42.80,34.16,,,
"NOE00134922","2005-11-10",41.54,31.28,,,
"NOE00134922","2005-11-11",39.02,28.94,,,
"NOE00134922","2005-11-12",35.78,28.40,,,
"NOE00134922","2005-11-13",41.36,28.58,,,
"NOE00134922","2005-11-14",35.96,24.44,,,
"NOE00134922","2005-11-15",27.50,16.16,,,
"NOE00134922","2005-11-16",34.70,21.38,,,
"NOE00134922","2005-11-17",35.06,31.28,,,
"NOE00134922","2005-11-18",37.58,30.74,,,
"NOE00134922","2005-11-19",33.26,25.52,,,
"NOE00134922","2005-11-20",32.18,21.20,,,
"NOE00134922","2005-11-21",35.78,17.96,,,
"NOE00134922","2005-11-22",47.66,31.82,,,
"NOE00134922","2005-11-23",49.28,34.34,,,
"NOE00134922","2005-11-24",40.82,27.50,,,
"NOE00134922","2005-11-25",31.64,20.48,,,
"NOE00134922","2005-11-26",24.08,17.42,,,
"NOE00134922","2005-11-27",23.36,16.34,,,
"NOE00134922","2005-11-28",27.86,15.26,,,
"NOE00134922","2005-11-29",30.38,18.68,,,
"NOE00134922","2005-11-30",30.56,21.20,,,
"NOE00134922","2005-12-01",26.78,21.02,,,
"NOE00134922","2005-12-02",24.44,15.80,,,
"NOE00134922","2005-12-03",28.40,17.06,,,
"NOE00134922","2005-12-04",32.00,19.04,,,
"NOE00134922","2005-12-05",32.36,16.52,,,
"NOE00134922","2005-12-06",27.86,21.20,,,
"NOE00134922","2005-12-07",28.94,19.94,,,
"NOE00134922","2005-12-08",21.92,8.78,,,
"NOE00134922","2005-12-09",28.04,19.22,,,
"NOE00134922","2005-12-10",30.02,21.56,,,
"NOE00134922","2005-12-11",37.58,21.56,,,
"NOE00134922","2005-12-12",32.54,26.24,,,
"NOE00134922","2005-12-13",33.44,24.62,,,
"NOE00134922","2005-12-14",34.16,24.98,,,
"NOE00134922","2005-12-16",29.48,6.98,,,
"NOE00134922","2005-12-17",33.26,9.68,,,
"NOE00134922","2005-12-18",34.88,19.40,,,
"NOE00134922","2005-12-19",22.46,8.60,,,
"NOE00134922","2005-12-20",22.10,14.54,,,
"NOE00134922","2005-12-21",23.72,12.74,,,
"NOE00134922","2005-12-22",27.50,22.28,,,
"NOE00134922","2005-12-23",26.06,16.52,,,
"NOE00134922","2005-12-24",24.08,16.88,,,
"NOE00134922","2005-12-25",21.02,5.18,,,
"NOE00134922","2005-12-26",22.82,5.18,,,
"NOE00134922","2005-12-27",32.54,19.04,,,
"NOE00134922","2005-12-28",35.78,27.50,,,
"NOE00134922","2005-12-29",32.36,7.52,,,
"NOE00134922","2005-12-31",29.30,19.94,,,
"NOE00134922","2006-01-01",22.82,10.22,,,
"NOE00134922","2006-01-02",23.18,15.44,,,
"NOE00134922","2006-01-03",27.32,15.44,,,
"NOE00134922","2006-01-04",39.02,24.44,,,
"NOE00134922","2006-01-05",51.08,36.14,,,
"NOE00134922","2006-01-06",48.20,31.10,,,
"NOE00134922","2006-01-07",37.04,22.28,,,
"NOE00134922","2006-01-08",30.74,17.60,,,
"NOE00134922","2006-01-09",35.60,18.32,,,
"NOE00134922","2006-01-10",29.12,9.86,,,
"NOE00134922","2006-01-11",39.20,25.52,,,
"NOE00134922","2006-01-12",41.00,24.98,,,
"NOE00134922","2006-01-13",49.82,33.26,,,
"NOE00134922","2006-01-14",44.42,34.88,,,
"NOE00134922","2006-01-15",46.22,31.46,,,
"NOE00134922","2006-01-16",39.74,28.40,,,
"NOE00134922","2006-01-17",33.08,19.76,,,
"NOE00134922","2006-01-18",24.08,11.48,,,
"NOE00134922","2006-01-19",17.42,9.68,,,
"NOE00134922","2006-01-21",9.14,0.50,,,
"NOE00134922","2006-01-22",28.76,5.72,,,
"NOE00134922","2006-01-26",41.90,26.78,,,
"NOE00134922","2006-01-27",39.20,32.18,,,
"NOE00134922","2006-01-28",43.16,28.94,,,
"NOE00134922","2006-01-29",31.64,27.32,,,
"NOE00134922","2006-01-30",30.74,26.24,,,
"NOE00134922","2006-01-31",29.84,21.56,,,
"NOE00134922","2006-02-01",26.06,22.28,,,
"NOE00134922","2006-02-02",25.34,8.24,,,
"NOE00134922","2006-02-03",13.28,2.84,,,
"NOE00134922","2006-02-04",18.32,9.86,,,
"NOE00134922","2006-02-05",18.14,9.86,,,
"NOE00134922","2006-02-06",16.70,8.60,,,
"NOE00134922","2006-02-07",27.14,14.54,,,
"NOE00134922","2006-02-08",27.14,21.02,,,
"NOE00134922","2006-02-09",35.78,20.66,,,
"NOE00134922","2006-02-10",33.44,27.68,,,
"NOE00134922","2006-02-11",33.26,23.72,,,
"NOE00134922","2006-02-12",44.78,32.36,,,
"NOE00134922","2006-02-14",27.32,21.56,,,
"NOE00134922","2006-02-15",26.78,22.28,,,
"NOE00134922","2006-02-16",31.28,25.88,,,
"NOE00134922","2006-02-17",28.94,18.14,,,
"NOE00134922","2006-02-18",18.68,8.24,,,
"NOE00134922","2006-02-19",14.00,3.74,,,
"NOE00134922","2006-02-20",21.92,1.22,,,
"NOE00134922","2006-02-21",38.30,13.10,,,
"NOE00134922","2006-02-22",47.66,34.16,,,
"NOE00134922","2006-02-23",42.62,30.92,,,
"NOE00134922","2006-02-24",45.68,26.96,,,
"NOE00134922","2006-02-25",27.86,22.82,,,
"NOE00134922","2006-02-26",24.98,21.92,,,
"NOE00134922","2006-02-27",24.62,17.42,,,
"NOE00134922","2006-02-28",17.60,8.24,,,
"NOE00134922","2006-03-01",14.36,2.48,,,
"NOE00134922","2006-03-02",13.28,-4.54,,,
"NOE00134922","2006-03-03",11.48,5.00,,,
"NOE00134922","2006-03-04",12.92,3.56,,,
"NOE00134922","2006-03-05",13.82,5.54,,,
"NOE00134922","2006-03-06",12.92,-1.48,,,
"NOE00134922","2006-03-07",19.04,4.82,,,
"NOE00134922","2006-03-08",20.66,9.86,,,
"NOE00134922","2006-03-09",21.92,-3.10,,,
"NOE00134922","2006-03-10",33.98,0.68,,,
"NOE00134922","2006-03-11",39.02,29.12,,,
"NOE00134922","2006-03-12",38.30,34.16,,,
"NOE00134922","2006-03-13",38.66,24.08,,,
"NOE00134922","2006-03-14",45.32,34.88,,,
"NOE00134922","2006-03-15",44.24,35.42,,,
"NOE00134922","2006-03-16",40.10,32.36,,,
"NOE00134922","2006-03-17",35.60,31.64,,,
"NOE00134922","2006-03-18",39.92,24.98,,,
"NOE00134922","2006-03-19",26.96,20.30,,,
"NOE00134922","2006-03-20",25.34,11.84,,,
"NOE00134922","2006-03-21",25.88,0.86,,,
"NOE00134922","2006-03-22",26.96,3.20,,,
"NOE00134922","2006-03-25",33.98,13.46,,,
"NOE00134922","2006-03-26",33.98,10.40,,,
"NOE00134922","2006-03-27",25.70,11.66,,,
"NOE00134922","2006-03-28",31.46,6.80,,,
"NOE00134922","2006-03-29",32.18,2.48,,,
"NOE00134922","2006-03-31",20.12,7.34,,,
"NOE00134922","2006-04-01",26.06,14.18,,,
"NOE00134922","2006-04-02",31.82,18.86,,,
"NOE00134922","2006-04-03",42.26,24.08,,,
"NOE00134922","2006-04-04",39.20,20.12,,,
"NOE00134922","2006-04-05",37.22,16.88,,,
"NOE00134922","2006-04-06",35.60,18.68,,,
"NOE00134922","2006-04-07",38.48,30.74,,,
"NOE00134922","2006-04-08",39.20,33.44,,,
"NOE00134922","2006-04-09",43.16,28.40,,,
"NOE00134922","2006-04-10",41.00,24.80,,,
"NOE00134922","2006-04-11",38.84,22.46,,,
"NOE00134922","2006-04-12",42.98,27.50,,,
"NOE00134922","2006-04-13",41.18,32.72,,,
"NOE00134922","2006-04-14",41.00,36.68,,,
"NOE00134922","2006-04-15",42.08,37.04,,,
"NOE00134922","2006-04-16",42.08,32.00,,,
"NOE00134922","2006-04-17",43.34,28.40,,,
"NOE00134922","2006-04-18",42.98,38.12,,,
"NOE00134922","2006-04-19",40.64,29.84,,,
"NOE00134922","2006-04-20",39.56,32.36,,,
"NOE00134922","2006-04-21",42.80,33.26,,,
"NOE00134922","2006-04-22",43.16,32.72,,,
"NOE00134922","2006-04-23",44.78,39.02,,,
"NOE00134922","2006-04-24",52.88,37.58,,,
"NOE00134922","2006-04-25",51.08,33.08,,,
"NOE00134922","2006-04-26",54.86,39.92,,,
"NOE00134922","2006-04-27",52.88,41.72,,,
"NOE00134922","2006-04-28",44.06,36.32,,,
"NOE00134922","2006-04-29",53.96,33.08,,,
"NOE00134922","2006-04-30",58.64,39.92,,,
"NOE00134922","2006-05-01",57.56,43.70,,,
"NOE00134922","2006-05-02",55.22,39.20,,,
"NOE00134922","2006-05-03",60.44,35.96,,,
"NOE00134922","2006-05-04",62.42,42.62,,,
"NOE00134922","2006-05-05",65.48,36.86,,,
"NOE00134922","2006-05-06",70.16,47.12,,,
"NOE00134922","2006-05-07",69.80,43.52,,,
"NOE00134922","2006-05-08",62.06,37.58,,,
"NOE00134922","2006-05-09",42.98,35.78,,,
"NOE00134922","2006-05-10",42.08,35.42,,,
"NOE00134922","2006-05-11",44.96,38.84,,,
"NOE00134922","2006-05-12",42.98,33.62,,,
"NOE00134922","2006-05-13",37.94,32.54,,,
"NOE00134922","2006-05-14",39.74,30.38,,,
"NOE00134922","2006-05-15",34.34,27.50,,,
"NOE00134922","2006-05-16",37.58,28.04,,,
"NOE00134922","2006-05-17",39.38,28.40,,,
"NOE00134922","2006-05-18",44.78,31.46,,,
"NOE00134922","2006-05-19",46.76,27.86,,,
"NOE00134922","2006-05-20",50.72,38.66,,,
"NOE00134922","2006-05-21",60.26,37.58,,,
"NOE00134922","2006-05-22",64.40,48.74,,,
"NOE00134922","2006-05-23",64.22,53.06,,,
"NOE00134922","2006-05-24",60.62,51.80,,,
"NOE00134922","2006-05-25",52.70,42.08,,,
"NOE00134922","2006-05-26",52.34,43.88,,,
"NOE00134922","2006-05-27",51.80,43.52,,,
"NOE00134922","2006-05-28",50.18,41.72,,,
"NOE00134922","2006-05-29",51.80,38.12,,,
"NOE00134922","2006-05-30",45.68,42.80,,,
"NOE00134922","2006-05-31",48.20,41.54,,,
"NOE00134922","2006-06-01",48.92,35.78,,,
"NOE00134922","2006-06-02",54.86,34.52,,,
"NOE00134922","2006-06-03",52.88,41.36,,,
"NOE00134922","2006-06-04",45.32,39.92,,,
"NOE00134922","2006-06-05",47.84,37.76,,,
"NOE00134922","2006-06-06",53.42,40.82,,,
"NOE00134922","2006-06-07",56.84,38.66,,,
"NOE00134922","2006-06-08",58.82,42.08,,,
"NOE00134922","2006-06-09",56.48,42.62,,,
"NOE00134922","2006-06-10",50.72,42.44,,,
"NOE00134922","2006-06-11",62.96,38.66,,,
"NOE00134922","2006-06-12",61.88,50.18,,,
"NOE00134922","2006-06-13",73.40,49.10,,,
"NOE00134922","2006-06-14",67.28,48.74,,,
"NOE00134922","2006-06-15",54.50,43.16,,,
"NOE00134922","2006-06-16",54.50,48.38,,,
"NOE00134922","2006-06-17",57.20,46.04,,,
"NOE00134922","2006-06-18",62.42,41.54,,,
"NOE00134922","2006-06-19",57.38,44.42,,,
"NOE00134922","2006-06-20",57.20,50.90,,,
"NOE00134922","2006-06-21",62.06,49.46,,,
"NOE00134922","2006-06-22",66.20,50.36,,,
"NOE00134922","2006-06-23",62.24,52.52,,,
"NOE00134922","2006-06-24",59.54,46.76,,,
"NOE00134922","2006-06-25",57.38,47.66,,,
"NOE00134922","2006-06-26",50.90,43.16,,,
"NOE00134922","2006-06-27",53.96,41.36,,,
"NOE00134922","2006-06-28",52.52,44.42,,,
"NOE00134922","2006-06-29",54.50,43.52,,,
"NOE00134922","2006-07-01",67.10,46.04,,,
"NOE00134922","2006-07-02",64.04,53.06,,,
"NOE00134922","2006-07-03",62.24,52.34,,,
"NOE00134922","2006-07-04",55.94,47.66,,,
"NOE00134922","2006-07-05",55.40,46.94,,,
"NOE00134922","2006-07-06",56.12,46.40,,,
"NOE00134922","2006-07-07",60.80,51.26,,,
"NOE00134922","2006-07-08",67.46,52.88,,,
"NOE00134922","2006-07-09",61.88,51.44,,,
"NOE00134922","2006-07-10",69.26,48.38,,,
"NOE00134922","2006-07-11",66.02,51.44,,,
"NOE00134922","2006-07-12",64.04,45.68,,,
"NOE00134922","2006-07-13",62.96,48.92,,,
"NOE00134922","2006-07-14",58.64,46.58,,,
"NOE00134922","2006-07-15",57.20,45.50,,,
"NOE00134922","2006-07-16",65.30,49.46,,,
"NOE00134922","2006-07-17",66.74,50.00,,,
"NOE00134922","2006-07-18",55.04,44.78,,,
"NOE00134922","2006-07-19",48.38,42.98,,,
"NOE00134922","2006-07-20",53.24,44.06,,,
"NOE00134922","2006-07-21",53.06,45.14,,,
"NOE00134922","2006-07-22",57.20,42.80,,,
"NOE00134922","2006-07-23",57.20,49.64,,,
"NOE00134922","2006-07-24",61.70,40.82,,,
"NOE00134922","2006-07-25",55.04,43.52,,,
"NOE00134922","2006-07-26",53.78,46.22,,,
"NOE00134922","2006-07-27",53.42,45.32,,,
"NOE00134922","2006-07-28",52.70,40.46,,,
"NOE00134922","2006-07-29",58.82,44.24,,,
"NOE00134922","2006-07-30",60.98,44.24,,,
"NOE00134922","2006-07-31",56.84,47.84,,,
"NOE00134922","2006-08-01",57.74,47.30,,,
"NOE00134922","2006-08-02",55.40,48.92,,,
"NOE00134922","2006-08-03",56.30,50.18,,,
"NOE00134922","2006-08-04",51.44,48.20,,,
"NOE00134922","2006-08-05",62.24,37.94,,,
"NOE00134922","2006-08-06",68.90,45.32,,,
"NOE00134922","2006-08-07",63.50,52.34,,,
"NOE00134922","2006-08-08",66.20,51.26,,,
"NOE00134922","2006-08-09",59.18,47.12,,,
"NOE00134922","2006-08-10",54.68,50.00,,,
"NOE00134922","2006-08-11",58.64,44.24,,,
"NOE00134922","2006-08-12",55.94,47.48,,,
"NOE00134922","2006-08-13",69.44,43.34,,,
"NOE00134922","2006-08-14",58.28,51.44,,,
"NOE00134922","2006-08-15",64.04,48.20,,,
"NOE00134922","2006-08-16",60.44,43.88,,,
"NOE00134922","2006-08-17",56.30,51.80,,,
"NOE00134922","2006-08-18",52.34,49.10,,,
"NOE00134922","2006-08-19",54.86,46.40,,,
"NOE00134922","2006-08-20",58.64,38.30,,,
"NOE00134922","2006-08-21",54.32,41.90,,,
"NOE00134922","2006-08-22",56.84,48.74,,,
"NOE00134922","2006-08-23",51.44,48.02,,,
"NOE00134922","2006-08-24",55.76,47.48,,,
"NOE00134922","2006-08-25",70.88,44.96,,,
"NOE00134922","2006-08-26",65.66,44.06,,,
"NOE00134922","2006-08-27",66.02,43.70,,,
"NOE00134922","2006-08-28",74.12,46.58,,,
"NOE00134922","2006-08-29",68.90,53.42,,,
"NOE00134922","2006-08-30",67.28,52.70,,,
"NOE00134922","2006-08-31",65.30,54.32,,,
"NOE00134922","2006-09-01",62.78,51.62,,,
"NOE00134922","2006-09-02",61.52,48.20,,,
"NOE00134922","2006-09-03",65.84,55.58,,,
"NOE00134922","2006-09-04",66.92,52.52,,,
"NOE00134922","2006-09-05",67.28,55.04,,,
"NOE00134922","2006-09-06",55.40,48.56,,,
"NOE00134922","2006-09-07",57.92,49.82,,,
"NOE00134922","2006-09-08",52.34,48.20,,,
"NOE00134922","2006-09-09",57.02,35.60,,,
"NOE00134922","2006-09-10",56.12,46.22,,,
"NOE00134922","2006-09-11",56.48,39.02,,,
"NOE00134922","2006-09-12",61.16,50.54,,,
"NOE00134922","2006-09-13",54.32,43.88,,,
"NOE00134922","2006-09-14",49.10,42.26,,,
"NOE00134922","2006-09-15",53.24,31.46,,,
"NOE00134922","2006-09-16",65.84,33.98,,,
"NOE00134922","2006-09-17",60.80,49.82,,,
"NOE00134922","2006-09-18",53.60,48.56,,,
"NOE00134922","2006-09-19",48.92,38.66,,,
"NOE00134922","2006-09-20",41.90,35.06,,,
"NOE00134922","2006-09-21",41.54,32.54,,,
"NOE00134922","2006-09-22",44.96,35.78,,,
"NOE00134922","2006-09-23",41.18,34.34,,,
"NOE00134922","2006-09-24",43.16,34.52,,,
"NOE00134922","2006-09-25",46.04,33.44,,,
"NOE00134922","2006-09-26",46.40,32.72,,,
"NOE00134922","2006-09-27",44.60,37.04,,,
"NOE00134922","2006-09-28",37.04,28.04,,,
"NOE00134922","2006-09-29",40.28,34.70,,,
"NOE00134922","2006-09-30",40.82,37.22,,,
"NOE00134922","2006-10-01",45.14,37.58,,,
"NOE00134922","2006-10-02",42.98,37.76,,,
"NOE00134922","2006-10-03",41.36,31.28,,,
"NOE00134922","2006-10-04",43.88,29.84,,,
"NOE00134922","2006-10-05",39.74,28.04,,,
"NOE00134922","2006-10-06",40.28,28.76,,,
"NOE00134922","2006-10-07",46.94,35.42,,,
"NOE00134922","2006-10-08",44.96,35.96,,,
"NOE00134922","2006-10-09",40.10,32.18,,,
"NOE00134922","2006-10-10",43.52,34.16,,,
"NOE00134922","2006-10-11",56.30,38.84,,,
"NOE00134922","2006-10-12",53.78,42.80,,,
"NOE00134922","2006-10-13",46.04,37.76,,,
"NOE00134922","2006-10-14",49.10,41.36,,,
"NOE00134922","2006-10-15",43.52,35.42,,,
"NOE00134922","2006-10-16",48.92,39.56,,,
"NOE00134922","2006-10-17",39.74,27.86,,,
"NOE00134922","2006-10-18",35.42,27.14,,,
"NOE00134922","2006-10-19",31.82,23.54,,,
"NOE00134922","2006-10-20",26.06,18.86,,,
"NOE00134922","2006-10-21",34.16,17.78,,,
"NOE00134922","2006-10-22",34.88,25.52,,,
"NOE00134922","2006-10-23",29.66,18.86,,,
"NOE00134922","2006-10-24",30.56,24.62,,,
"NOE00134922","2006-10-25",30.38,22.46,,,
"NOE00134922","2006-10-26",25.34,20.66,,,
"NOE00134922","2006-10-27",26.96,19.58,,,
"NOE00134922","2006-10-28",32.90,15.26,,,
"NOE00134922","2006-10-29",30.74,20.84,,,
"NOE00134922","2006-10-30",29.66,15.44,,,
"NOE00134922","2006-10-31",19.76,14.54,,,
"NOE00134922","2006-11-01",23.36,7.16,,,
"NOE00134922","2006-11-02",29.48,17.06,,,
"NOE00134922","2006-11-03",26.24,15.98,,,
"NOE00134922","2006-11-04",30.20,18.14,,,
"NOE00134922","2006-11-05",28.94,21.74,,,
"NOE00134922","2006-11-06",32.36,22.64,,,
"NOE00134922","2006-11-07",28.94,24.08,,,
"NOE00134922","2006-11-08",30.20,27.14,,,
"NOE00134922","2006-11-09",28.94,16.52,,,
"NOE00134922","2006-11-10",35.78,17.96,,,
"NOE00134922","2006-11-11",33.98,28.04,,,
"NOE00134922","2006-11-12",33.80,25.70,,,
"NOE00134922","2006-11-13",28.76,22.82,,,
"NOE00134922","2006-11-14",33.98,27.32,,,
"NOE00134922","2006-11-15",33.98,26.24,,,
"NOE00134922","2006-11-16",36.50,30.02,,,
"NOE00134922","2006-11-17",39.56,31.10,,,
"NOE00134922","2006-11-18",41.18,28.76,,,
"NOE00134922","2006-11-19",44.96,27.32,,,
"NOE00134922","2006-11-20",32.90,21.74,,,
"NOE00134922","2006-11-21",42.62,21.20,,,
"NOE00134922","2006-11-22",43.16,37.04,,,
"NOE00134922","2006-11-23",42.98,34.16,,,
"NOE00134922","2006-11-24",36.14,26.06,,,
"NOE00134922","2006-11-25",38.48,31.28,,,
"NOE00134922","2006-11-26",41.72,33.62,,,
"NOE00134922","2006-11-27",44.96,34.34,,,
"NOE00134922","2006-11-28",44.24,35.60,,,
"NOE00134922","2006-11-29",39.56,30.20,,,
"NOE00134922","2006-11-30",35.96,30.20,3.00,,
"NOE00134922","2006-12-01",37.94,26.24,0.00,,0.00
"NOE00134922","2006-12-02",33.98,29.66,12.00,,0.00
"NOE00134922","2006-12-03",31.46,29.48,7.00,,0.00
"NOE00134922","2006-12-04",33.44,30.92,0.00,,0.00
"NOE00134922","2006-12-05",34.16,29.12,0.00,,0.00
"NOE00134922","2006-12-06",29.84,26.42,0.00,,0.00
"NOE00134922","2006-12-07",33.62,28.22,0.00,,0.00
"NOE00134922","2006-12-08",31.82,26.78,0.00,,0.00
"NOE00134922","2006-12-09",34.88,25.88,0.00,,0.00
"NOE00134922","2006-12-10",35.60,25.16,0.00,,0.00
"NOE00134922","2006-12-11",37.76,25.88,0.00,,0.00
"NOE00134922","2006-12-12",41.72,30.02,0.00,,0.00
"NOE00134922","2006-12-13",42.98,29.48,0.00,,0.00
"NOE00134922","2006-12-14",34.16,25.16,2.00,,0.00
"NOE00134922","2006-12-15",26.60,17.78,5.00,,0.00
"NOE00134922","2006-12-16",29.30,20.48,9.00,,0.00
"NOE00134922","2006-12-17",29.48,18.68,51.00,,10.00
"NOE00134922","2006-12-18",31.82,27.68,99.00,,50.00
"NOE00134922","2006-12-19",29.48,20.30,0.00,,100.00
"NOE00134922","2006-12-20",44.78,13.46,113.00,,100.00
"NOE00134922","2006-12-21",49.28,37.04,139.00,,0.00
"NOE00134922","2006-12-22",53.42,32.18,158.00,,0.00
"NOE00134922","2006-12-23",33.08,27.14,59.00,,90.00
"NOE00134922","2006-12-24",32.72,25.70,0.00,,130.00
"NOE00134922","2006-12-25",41.00,24.98,45.00,,130.00
"NOE00134922","2006-12-26",47.12,29.48,156.00,,60.00
"NOE00134922","2006-12-27",31.46,24.44,140.00,,40.00
"NOE00134922","2006-12-28",36.14,25.16,128.00,,80.00
"NOE00134922","2006-12-29",32.90,29.48,21.00,,180.00
"NOE00134922","2006-12-30",37.22,27.32,0.00,,210.00
"NOE00134922","2006-12-31",33.44,25.88,29.00,,210.00
"NOE00134922","2007-01-01",35.24,24.98,0.00,,170.00
"NOE00134922","2007-01-02",28.76,18.86,0.00,,0.00
"NOE00134922","2007-01-03",29.12,22.10,0.00,,170.00
"NOE00134922","2007-01-04",28.22,14.54,0.00,,170.00
"NOE00134922","2007-01-05",27.14,18.68,0.00,,150.00
"NOE00134922","2007-01-06",28.58,15.98,0.00,,150.00
"NOE00134922","2007-01-07",24.98,14.90,0.00,,150.00
"NOE00134922","2007-01-08",28.22,12.56,0.00,,150.00
"NOE00134922","2007-01-09",33.80,24.80,0.00,,140.00
"NOE00134922","2007-01-10",33.44,27.68,130.00,,140.00
"NOE00134922","2007-01-11",29.12,15.80,0.00,,240.00
"NOE00134922","2007-01-12",23.00,14.72,0.00,,240.00
"NOE00134922","2007-01-13",16.34,4.82,0.00,,240.00
"NOE00134922","2007-01-14",23.00,11.12,0.00,,240.00
"NOE00134922","2007-01-15",30.74,17.06,0.00,,240.00
"NOE00134922","2007-01-16",31.46,20.12,1.00,,250.00
"NOE00134922","2007-01-17",29.12,21.74,13.00,,230.00
"NOE00134922","2007-01-18",32.00,19.76,0.00,,230.00
"NOE00134922","2007-01-19",30.56,9.68,0.00,,230.00
"NOE00134922","2007-01-20",19.94,10.04,23.00,,230.00
"NOE00134922","2007-01-21",16.70,1.04,31.00,,260.00
"NOE00134922","2007-01-22",19.94,6.62,44.00,,290.00
"NOE00134922","2007-01-23",24.98,12.02,76.00,,350.00
"NOE00134922","2007-01-24",18.50,6.44,0.00,,400.00
"NOE00134922","2007-01-25",42.80,16.52,50.00,,400.00
"NOE00134922","2007-01-26",35.96,21.74,114.00,,310.00
"NOE00134922","2007-01-27",26.24,15.08,16.00,,300.00
"NOE00134922","2007-01-28",21.74,13.10,32.00,,300.00
"NOE00134922","2007-01-29",28.22,13.28,16.00,,310.00
"NOE00134922","2007-01-30",19.58,10.94,0.00,,300.00
"NOE00134922","2007-01-31",17.42,10.22,0.00,,300.00
"NOE00134922","2007-02-01",17.78,11.84,0.00,,300.00
"NOE00134922","2007-02-02",23.00,13.28,10.00,,300.00
"NOE00134922","2007-02-03",25.34,15.62,14.00,,300.00
"NOE00134922","2007-02-04",18.14,11.84,0.00,,350.00
"NOE00134922","2007-02-05",14.72,2.30,0.00,,350.00
"NOE00134922","2007-02-06",13.64,1.22,0.00,,350.00
"NOE00134922","2007-02-07",17.42,5.72,0.00,,350.00
"NOE00134922","2007-02-08",20.30,12.74,1.00,,350.00
"NOE00134922","2007-02-09",29.12,15.62,89.00,,350.00
"NOE00134922","2007-02-10",28.94,21.20,69.00,,390.00
"NOE00134922","2007-02-11",28.22,24.08,25.00,,410.00
"NOE00134922","2007-02-12",28.94,8.60,0.00,,430.00
"NOE00134922","2007-02-13",17.24,7.52,0.00,,430.00
"NOE00134922","2007-02-14",14.18,7.52,0.00,,0.00
"NOE00134922","2007-02-15",12.20,1.22,0.00,,410.00
"NOE00134922","2007-02-16",8.42,-0.04,0.00,,0.00
"NOE00134922","2007-02-17",17.06,7.52,0.00,,390.00
"NOE00134922","2007-02-18",16.52,3.38,0.00,,380.00
"NOE00134922","2007-02-19",8.78,-3.64,0.00,,380.00
"NOE00134922","2007-02-20",10.40,-5.44,0.00,,370.00
"NOE00134922","2007-02-21",15.26,-6.34,0.00,,370.00
"NOE00134922","2007-02-22",18.68,9.50,0.00,,370.00
"NOE00134922","2007-02-23",15.62,8.78,0.00,,370.00
"NOE00134922","2007-02-24",14.36,9.86,0.00,,370.00
"NOE00134922","2007-02-25",19.22,12.74,0.00,,370.00
"NOE00134922","2007-02-26",21.20,6.08,0.00,,370.00
"NOE00134922","2007-02-27",21.20,13.10,0.00,,370.00
"NOE00134922","2007-02-28",25.16,15.62,0.00,,0.00
"NOE00134922","2007-03-01",28.76,20.30,0.00,,370.00
"NOE00134922","2007-03-02",37.94,26.42,21.00,,370.00